IZ1DME-3 Weather Reports


time (UTC)temp
C
wind
direction
speed
KPH
gust
KPH
rain 1hr
cm
rain 24hr
cm
rain mn
cm
humidity
%
barometer
mb
20260507100210 15 0.0 0.0 0.00 0.00 0.00 72 1016.3
20260507093710 15 0.0 0.0 0.00 0.00 0.00 74 1016.2
20260507091210 14 0.0 0.0 0.00 0.00 0.00 78 1016.1
20260507084710 13 0.0 0.0 0.00 0.00 0.00 81 1016.3
20260507082210 12 0.0 0.0 0.00 0.00 0.00 81 1016.3
20260507075711 12 0.0 0.0 0.00 0.00 0.00 82 1016.2
20260507073210 12 0.0 0.0 0.00 0.00 0.00 81 1016.2
20260507070710 12 0.0 0.0 0.00 0.00 0.00 83 1016.4
20260507064210 11 0.0 0.0 0.00 0.00 0.00 87 1016.2
20260507061710 11 0.0 0.0 0.00 0.00 0.00 88 1016.2
20260507055210 11 0.0 0.0 0.00 0.00 0.00 89 1016.0
20260507052711 11 0.0 0.0 0.00 0.00 0.00 90 1015.6
20260507050210 10 0.0 0.0 0.00 0.00 0.00 90 1015.3
20260507043710 10 0.0 0.0 0.00 0.00 0.00 90 1015.1
20260507041210 10 0.0 0.0 0.00 0.00 0.00 91 1014.8
20260507034710 11 0.0 0.0 0.00 0.00 0.00 94 1014.8
20260507032211 10 0.0 0.0 0.00 0.00 0.00 96 1014.6
20260507025711 11 0.0 0.0 0.00 0.00 0.00 96 1014.6
20260507023211 11 0.0 0.0 0.00 0.00 0.00 95 1014.5
20260507020710 11 0.0 0.0 0.00 0.00 0.00 93 1014.3
20260507014211 11 0.0 0.0 0.00 0.00 0.00 92 1014.2
20260507011711 11 0.0 0.0 0.00 0.00 0.00 94 1014.2
20260507005210 11 0.0 0.0 0.00 0.00 0.00 94 1014.2
20260507002711 11 0.0 0.0 0.00 0.00 0.00 92 1014.1
20260507000212 12 0.0 0.0 0.00 0.00 0.00 90 1014.0
20260506233711 12 0.0 0.0 0.00 0.00 0.00 90 1014.0
20260506231211 12 0.0 0.0 0.00 0.00 0.00 91 1013.8
20260506224711 12 0.0 0.0 0.00 0.00 0.00 91 1013.7
20260506222210 12 0.0 0.0 0.00 0.00 0.00 93 1013.4
20260506215710 12 0.0 0.0 0.00 0.00 0.00 92 1013.2
20260506213210 12 0.0 0.0 0.00 0.00 0.00 91 1012.9
20260506210711 12 0.0 0.0 0.00 0.00 0.00 86 1012.5
20260506204210 13 0.0 0.0 0.00 0.00 0.00 84 1012.4
20260506201711 14 0.0 0.0 0.00 0.00 0.00 82 1011.8
20260506195211 15 0.0 0.0 0.00 0.00 0.00 79 1011.3
20260506192711 15 0.0 0.0 0.00 0.00 0.00 71 1010.2
20260506190210 16 0.0 0.0 0.00 0.00 0.00 71 1009.5
20260506183710 16 0.0 0.0 0.00 0.00 0.00 66 1009.0
20260506181339 17 0.0 0.0 0.00 0.00 0.00 64 1008.3